International Falls, MN

8:21 PM CDT on May 23, 2017 (GMT -0500)
Falls International

Weather History for KINL - December, 2013

Change the Weather History Date:

Tuesday, December 17, 2013

  Actual Average Record
Temperature  
Mean Temperature 1 °F 9 °F  
Max Temperature 19 °F 18 °F 40 °F (1923)
Min Temperature -17 °F -1 °F -35 °F (1983)
Degree Days  
Heating Degree Days 64 56  
Month to date heating degree days 1151 895  
Since 1 July heating degree days 3509 3356  
Cooling Degree Days 0 0  
Month to date cooling degree days 0 0  
Year to date cooling degree days 224 192  
Moisture  
Dew Point 1 °F    
Average Humidity 73    
Maximum Humidity 88    
Minimum Humidity 58    
Precipitation  
Precipitation 0.01 in 0.03 in 0.29 in (1939)
Month to date precipitation 1.17 0.46  
Year to date precipitation 31.57 23.87  
Snow  
Snow 0.20 in 0.50 in 3.00 in (1996)
Month to date snowfall 20.9 8.1  
Since 1 July snowfall 31.8 24.1  
Snow Depth 12.00 in    
Sea Level Pressure  
Sea Level Pressure 29.92 in    
Wind  
Wind Speed 9 mph (WNW)    
Max Wind Speed 25 mph    
Max Gust Speed 30 mph    
Visibility 8 miles    
Events Snow    
T = Trace of Precipitation, MM = Missing Value Source: NWS Daily Summary

Daily Weather History Graph

Daily Weather History Graph

Search for Another Location

Airport or City:

Trip Planner

Search our weather history database for the weather conditions in past years. The results will help you decide how hot, cold, wet, or windy it might be!

Date:

Astronomy

Dec. 17, 2013 Rise Set
Actual Time 8:00 AM CST 4:18 PM CST
Civil Twilight 7:23 AM CST 4:55 PM CST
Nautical Twilight 6:43 AM CST 5:36 PM CST
Astronomical Twilight 6:05 AM CST 6:14 PM CST
Moon 5:04 PM CST (12/17) 7:52 AM CST (12/17)
Length of Visible Light 9h 32m
Length of Day
8h 18m
Full, 100% of the Moon is Illuminated
Dec 17
Full
Dec 25
Last Quarter
Jan 1
New
Jan 7
First Quarter
Jan 15
Full

Hourly Weather History & Observations

Time (CST) Temp. Windchill Dew Point Humidity Pressure Visibility Wind Dir Wind Speed Gust Speed Precip Events Conditions
12:55 AM 14.0 °F 3.9 °F 10.0 °F 84% 29.74 in 10.0 mi WSW 6.9 mph - N/A   Partly Cloudy
1:55 AM 16.0 °F 6.3 °F 12.0 °F 84% 29.74 in 10.0 mi West 6.9 mph - 0.01 in   Mostly Cloudy
2:55 AM 18.0 °F 8.7 °F 14.0 °F 84% 29.74 in 10.0 mi WSW 6.9 mph - N/A   Overcast
3:55 AM 17.1 °F 8.7 °F 14.0 °F 88% 29.74 in 10.0 mi West 5.8 mph - N/A   Mostly Cloudy
4:55 AM 19.0 °F 10.0 °F 15.1 °F 85% 29.75 in 10.0 mi West 6.9 mph - N/A   Overcast
5:55 AM 18.0 °F 8.7 °F 12.9 °F 81% 29.78 in 10.0 mi WNW 6.9 mph - N/A   Mostly Cloudy
6:18 AM 17.6 °F 10.7 °F 12.2 °F 79% 29.71 in 4.0 mi West 4.6 mph - 0.00 in Snow Light Snow
6:45 AM 17.6 °F 6.4 °F 14.0 °F 86% 29.72 in 9.0 mi NW 9.2 mph - 0.00 in Snow Light Snow
6:55 AM 19.0 °F 4.5 °F 12.0 °F 74% 29.81 in 10.0 mi NW 16.1 mph 20.7 mph 0.00 in   Overcast
7:55 AM 16.0 °F 1.1 °F 10.0 °F 77% 29.86 in 5.0 mi NNW 15.0 mph - 0.02 in Snow Light Snow
8:55 AM 12.9 °F -3.4 °F 6.1 °F 74% 29.91 in 10.0 mi NNW 16.1 mph - 0.00 in   Overcast
9:55 AM 10.9 °F -5.4 °F 1.9 °F 67% 29.96 in 10.0 mi NNW 15.0 mph - N/A   Overcast
10:21 AM 10.4 °F -5.4 °F 3.2 °F 73% 29.88 in 2.0 mi NW 13.8 mph - 0.01 in Snow Light Snow
10:25 AM 10.4 °F -5.4 °F 3.2 °F 73% 29.88 in 1.8 mi NNW 13.8 mph - 0.01 in Snow Light Snow
10:37 AM 10.4 °F -3.3 °F 5.0 °F 79% 29.89 in 0.5 mi NW 10.4 mph - 0.01 in Snow Snow
10:52 AM 10.4 °F -7.2 °F 3.2 °F 73% 29.90 in 1.8 mi WNW 17.3 mph 23.0 mph 0.01 in Snow Light Snow
10:55 AM 10.9 °F -5.9 °F 3.0 °F 70% 29.99 in 1.8 mi NW 16.1 mph - 0.01 in Snow Light Snow
11:03 AM 10.4 °F -8.6 °F 1.4 °F 67% 29.90 in 2.5 mi NW 20.7 mph 27.6 mph 0.00 in Snow Light Snow
11:05 AM 10.4 °F -8.6 °F -0.4 °F 62% 29.90 in 3.0 mi NW 20.7 mph 27.6 mph 0.00 in Snow Light Snow
11:55 AM 10.9 °F -7.0 °F -2.0 °F 56% 29.98 in 10.0 mi WNW 18.4 mph 21.9 mph 0.02 in   Mostly Cloudy
12:46 PM 10.4 °F -6.0 °F -2.2 °F 57% 29.89 in 8.0 mi WNW 15.0 mph 21.9 mph 0.00 in   Mostly Cloudy
12:55 PM 10.0 °F -5.9 °F -2.9 °F 56% 29.97 in 7.0 mi WNW 13.8 mph - 0.00 in   Overcast
1:55 PM 9.0 °F -7.3 °F -2.0 °F 61% 29.99 in 7.0 mi WNW 13.8 mph - N/A   Overcast
2:55 PM 7.0 °F -9.8 °F -2.0 °F 67% 30.01 in 8.0 mi WNW 13.8 mph - 0.00 in Snow Light Snow
3:34 PM 6.8 °F -8.6 °F -4.0 °F 61% 29.94 in 10.0 mi WNW 11.5 mph - 0.00 in   Scattered Clouds
3:55 PM 6.1 °F -8.7 °F -5.1 °F 60% 30.04 in 10.0 mi WNW 10.4 mph - 0.00 in   Partly Cloudy
4:38 PM 3.2 °F -9.1 °F -5.8 °F 66% 29.96 in 10.0 mi WNW 6.9 mph - N/A   Mostly Cloudy
4:55 PM 3.9 °F -6.9 °F -4.0 °F 70% 30.05 in 10.0 mi WNW 5.8 mph - N/A   Overcast
5:34 PM 1.4 °F -11.3 °F -5.8 °F 72% 29.98 in 10.0 mi West 6.9 mph - N/A   Scattered Clouds
5:55 PM 1.0 °F -11.7 °F -7.1 °F 69% 30.06 in 10.0 mi West 6.9 mph - N/A   Clear
6:55 PM -0.9 °F -11.0 °F -8.0 °F 72% 30.06 in 10.0 mi West 4.6 mph - N/A   Clear
7:55 PM -2.9 °F -16.5 °F -9.0 °F 75% 30.06 in 10.0 mi West 6.9 mph - N/A   Clear
8:55 PM -5.1 °F -13.6 °F -11.0 °F 76% 30.06 in 10.0 mi West 3.5 mph - N/A   Clear
9:55 PM -6.0 °F -14.7 °F -11.9 °F 75% 30.08 in 10.0 mi West 3.5 mph - N/A   Clear
10:55 PM -16.1 °F - -20.0 °F 82% 30.07 in 10.0 mi Calm Calm - N/A   Clear
11:55 PM -13.0 °F -25.1 °F -18.0 °F 78% 30.04 in 10.0 mi ESE 4.6 mph - N/A   Clear